[[{"header":{"parameterUnit":"m.s-1","parameterCategory":1,"la1":30.2991,"la2":30.254,"lo1":-89.0895,"lo2":-89.0444,"dy":0.0017,"dx":0.0017,"nx":28,"ny":28,"refTime":"2025-09-04T21:00:00:Z","depth":0,"parameterNumber":2,"parameterNumberName":"U-component_of_WINDS"},"data":[0,0,0,0,0,0,0,0,0,0,0,0,0,0,0,0,0,0,0,0,0,0,0,0,0,0,0,0,0,0,0,0,0,0,0,0,0,0,0,0,0,0,0,0,0,0,0,0,0,0,0,0,0,0,0,0,0,0,0.073,0.073,0,0.0776,0.0777,0.0777,0.0813,0.0814,0.0814,0.0814,0.0864,0.0865,0.0866,0,0,0,0,0,0,0,0,0,0,0,0,0,0.0673,0.0673,0.073,0.073,0.0731,0.0776,0.0777,0.0778,0.0813,0.0814,0.0814,0.0814,0.0864,0.0865,0.0866,0,0,0,0,0,0,0,0,0,0,0,0,0,0.0706,0.0674,0.0729,0.0754,0.0757,0.0776,0.0777,0.0778,0.0813,0.0814,0.0814,0.0814,0.0863,0.0865,0.0866,0.0866,0,0,0.0871,0.0872,0,0,0,0,0,0,0,0,0.0704,0.0708,0.075,0.0752,0.0755,0.0789,0.0775,0.0807,0.0813,0.0792,0.0814,0.0815,0.0839,0.0842,0.085,0.0868,0.087,0.0871,0.0872,0.0873,0.0873,0,0,0,0,0,0,0,0.0702,0.0706,0.0748,0.075,0.0754,0.0763,0.0768,0.0781,0.0812,0.0794,0.0796,0.0801,0.0841,0.0849,0.0852,0.0871,0.0871,0.0872,0.0873,0.0874,0.0891,0.0891,0,0,0,0,0,0,0.0695,0.0704,0.0747,0.075,0.073,0.0764,0.077,0.0778,0.0812,0.0818,0.0801,0.0803,0.0846,0.085,0.0854,0.0855,0.0873,0.0874,0.0875,0.0891,0.0891,0.089,0,0,0,0,0,0,0.0694,0.0699,0.0745,0.0728,0.0734,0.0764,0.0773,0.0779,0.0787,0.0817,0.0823,0.0803,0.0846,0.0851,0.0862,0.0857,0.0875,0.0876,0.0892,0.0891,0.0891,0.0859,0,0,0,0,0,0,0.0692,0.0698,0.0698,0.0727,0.0735,0.0752,0.0773,0.0779,0.0789,0.0792,0.0821,0.0827,0.0847,0.086,0.0864,0.086,0.0877,0.0893,0.0892,0.0891,0.086,0.0857,0.0854,0,0,0,0,0,0.069,0.0688,0.0698,0.0703,0.0735,0.0752,0.0756,0.0779,0.0789,0.0789,0.0808,0.0826,0.0857,0.0861,0.0866,0.0862,0.0893,0.0892,0.0891,0.0862,0.0858,0.0854,0,0,0,0,0,0,0.0658,0.0692,0.0704,0.071,0.0728,0.0758,0.0759,0.0774,0.079,0.0792,0.0821,0.0827,0.0835,0.085,0.0853,0.0863,0.0877,0.0877,0.0853,0.085,0.0847,0.0843,0.0879,0,0,0,0,0,0.0651,0.0661,0.0691,0.0694,0.0702,0.0729,0.0737,0.0753,0.0773,0.0781,0.0801,0.082,0.0834,0.0843,0.0857,0.0862,0.0869,0.0862,0.0859,0.0857,0.0856,0.086,0.0857,0.0887,0.0887,0.0887,0,0,0.0638,0.0658,0.0663,0.0688,0.0704,0.0714,0.0735,0.0745,0.0753,0.0782,0.0794,0.0809,0.0832,0.084,0.0844,0.0852,0.0849,0.0855,0.0853,0.0854,0.0858,0.0855,0.0853,0.0886,0.0886,0.0886,0,0,0.062,0.0636,0.064,0.0655,0.0678,0.0695,0.0696,0.0724,0.0735,0.0747,0.0769,0.0779,0.0803,0.0818,0.0829,0.0815,0.0832,0.0819,0.0803,0.0806,0.0804,0.0802,0.0797,0.0795,0.0819,0.0819,0.0819,0,0.0601,0.0617,0.064,0.0649,0.0659,0.0685,0.069,0.0704,0.073,0.0737,0.0745,0.0775,0.0793,0.0804,0.0801,0.0809,0.0811,0.0816,0.0802,0.0801,0.0799,0.0795,0.0793,0.0817,0.0817,0.0818,0.0818,0,0.0592,0.0603,0.0604,0.0628,0.0638,0.0645,0.067,0.0678,0.0693,0.071,0.0721,0.0743,0.0762,0.0766,0.0781,0.078,0.0784,0.0797,0.0812,0.0794,0.079,0.0789,0.0815,0.0815,0.0816,0.0816,0,0,0.0555,0.0592,0.0592,0.0603,0.063,0.0639,0.0646,0.0665,0.0671,0.0688,0.0695,0.0715,0.0726,0.0739,0.0756,0.0758,0.0746,0.0771,0.0772,0.0766,0.0746,0.0736,0.0733,0.0757,0.0757,0.0757,0.0744,0,0.0541,0.0556,0.0577,0.0585,0.0595,0.0619,0.0626,0.0644,0.0659,0.0671,0.0689,0.0702,0.0716,0.0724,0.0728,0.0747,0.0742,0.0748,0.0764,0.0765,0.0758,0.0731,0.0721,0.0708,0.0742,0.0742,0.0742,0,0.0526,0.0541,0.055,0.0575,0.0581,0.0586,0.0604,0.0615,0.0635,0.0646,0.0659,0.0678,0.0687,0.07,0.0714,0.0717,0.0725,0.0736,0.0736,0.0738,0.0752,0.0733,0.0704,0.0702,0.074,0.074,0.074,0,0.0498,0.0521,0.0529,0.0538,0.0568,0.0571,0.0584,0.0604,0.0614,0.063,0.0636,0.0653,0.0663,0.0676,0.0698,0.0706,0.0709,0.0724,0.0719,0.0719,0.0719,0.0719,0.0691,0.0724,0.0724,0.0724,0.0724,0,0.048,0.0484,0.0516,0.0521,0.0527,0.0551,0.0556,0.0571,0.0589,0.0598,0.0621,0.0628,0.0657,0.0668,0.0686,0.0694,0.0699,0.0708,0.0713,0.0706,0.0705,0.0712,0.0713,0.0724,0.0724,0.0724,0.0724,0,0.045,0.0471,0.0482,0.0509,0.0516,0.0519,0.0542,0.0548,0.0565,0.0575,0.0579,0.0606,0.062,0.0644,0.0665,0.0677,0.0682,0.069,0.0675,0.0678,0.0671,0.0671,0.0647,0.0645,0.0679,0.0679,0.0678,0,0.0437,0.0441,0.0468,0.0475,0.0486,0.0497,0.0507,0.0531,0.054,0.0563,0.0566,0.0582,0.0596,0.0617,0.0639,0.0655,0.0663,0.0653,0.0666,0.0659,0.0663,0.0662,0.0663,0.0651,0.065,0.065,0.0649,0,0.0411,0.0422,0.0434,0.045,0.0461,0.0475,0.049,0.0494,0.0522,0.0531,0.0545,0.0556,0.0577,0.0592,0.0611,0.0625,0.0642,0.0645,0.0645,0.0638,0.0629,0.0634,0.0667,0.0646,0.0646,0.0646,0.0647,0.0647,0.039,0.0394,0.0413,0.0426,0.044,0.0454,0.046,0.0477,0.049,0.0508,0.0522,0.0535,0.0555,0.0582,0.0595,0.0606,0.0613,0.0613,0.0613,0.0612,0.0609,0.0627,0.0609,0.0609,0.061,0.061,0.061,0,0.0365,0.0379,0.0391,0.0411,0.0421,0.0435,0.0452,0.046,0.0471,0.0488,0.0501,0.0517,0.0531,0.0554,0.057,0.0575,0.0583,0.0578,0.0578,0.0581,0.0602,0.06,0.0571,0.0571,0.0571,0.0571,0.0571,0.0571,0.0354,0.0362,0.0374,0.0389,0.0403,0.0415,0.0424,0.0437,0.045,0.0467,0.0479,0.0493,0.0512,0.053,0.0544,0.055,0.0555,0.0548,0.0557,0.0576,0.0579,0.0583,0.0582,0.0549,0.0549,0.0535,0.0535,0.0535]},{"header":{"parameterUnit":"m.s-1","parameterCategory":1,"la1":30.2991,"la2":30.254,"lo1":-89.0895,"lo2":-89.0444,"dy":0.0017,"dx":0.0017,"nx":28,"ny":28,"refTime":"2025-09-04T21:00:00:Z","depth":0,"parameterNumber":3,"parameterNumberName":"V-component_of_WINDS"},"data":[0,0,0,0,0,0,0,0,0,0,0,0,0,0,0,0,0,0,0,0,0,0,0,0,0,0,0,0,0,0,0,0,0,0,0,0,0,0,0,0,0,0,0,0,0,0,0,0,0,0,0,0,0,0,0,0,0,0,1.8879,1.8879,0,1.8908,1.8908,1.8908,1.8954,1.8955,1.8956,1.8957,1.8983,1.8982,1.8982,0,0,0,0,0,0,0,0,0,0,0,0,0,1.8858,1.8858,1.8879,1.8879,1.8879,1.8908,1.8908,1.8908,1.8954,1.8955,1.8956,1.8957,1.8983,1.8982,1.8982,0,0,0,0,0,0,0,0,0,0,0,0,0,1.8875,1.8858,1.8879,1.8906,1.8908,1.8908,1.8908,1.8909,1.8954,1.8955,1.8956,1.8957,1.8983,1.8982,1.8982,1.8956,0,0,1.8982,1.8982,0,0,0,0,0,0,0,0,1.8874,1.8875,1.8901,1.8904,1.8907,1.8929,1.891,1.8924,1.8953,1.8936,1.8957,1.8958,1.8963,1.8965,1.8967,1.8958,1.8959,1.8982,1.8982,1.8982,1.8982,0,0,0,0,0,0,0,1.8872,1.8874,1.889,1.8902,1.8905,1.8915,1.8918,1.8913,1.8942,1.8938,1.8941,1.8944,1.8965,1.8967,1.8968,1.8959,1.8982,1.8982,1.8982,1.8982,1.8926,1.8924,0,0,0,0,0,0,1.8868,1.8873,1.8889,1.8891,1.8893,1.8914,1.8918,1.892,1.8943,1.8947,1.8943,1.8946,1.8967,1.8968,1.8969,1.8938,1.8982,1.8982,1.8982,1.8927,1.8925,1.8924,0,0,0,0,0,0,1.8867,1.8869,1.8888,1.8883,1.8886,1.8913,1.8915,1.892,1.8923,1.8947,1.8952,1.8941,1.8968,1.897,1.8959,1.8939,1.8982,1.8981,1.8929,1.8927,1.8925,1.8876,0,0,0,0,0,0,1.8866,1.8868,1.886,1.8882,1.8886,1.8878,1.8914,1.892,1.8923,1.8927,1.8945,1.895,1.8969,1.8959,1.8959,1.894,1.8981,1.893,1.8928,1.8925,1.8879,1.8872,1.8866,0,0,0,0,0,1.8865,1.8845,1.8859,1.8861,1.8877,1.8877,1.8879,1.8903,1.8921,1.8912,1.8927,1.8949,1.8942,1.8957,1.8957,1.8939,1.8932,1.8929,1.8925,1.8882,1.8874,1.8867,0,0,0,0,0,0,1.8819,1.8849,1.8865,1.8852,1.8861,1.8885,1.8874,1.8894,1.8898,1.8902,1.893,1.8934,1.8918,1.8928,1.8944,1.8913,1.894,1.8937,1.8907,1.8899,1.8893,1.889,1.8981,0,0,0,0,0,1.8807,1.8807,1.8832,1.8818,1.8822,1.8847,1.8848,1.8866,1.8877,1.8881,1.8895,1.8904,1.8903,1.8902,1.8903,1.8881,1.8884,1.8868,1.8862,1.8857,1.8852,1.8838,1.883,1.8913,1.8913,1.8913,0,0,1.8783,1.8799,1.8797,1.8809,1.8819,1.8815,1.885,1.8846,1.8843,1.888,1.887,1.888,1.8892,1.8874,1.8867,1.8882,1.883,1.8852,1.8848,1.8847,1.8834,1.8826,1.8819,1.8911,1.8912,1.8912,0,0,1.8736,1.875,1.8738,1.8747,1.8761,1.8778,1.8774,1.8795,1.8803,1.8794,1.8821,1.8817,1.8816,1.8822,1.8825,1.8778,1.8798,1.8778,1.8743,1.8729,1.8723,1.8717,1.8697,1.869,1.8775,1.8774,1.8774,0,1.8704,1.8701,1.8729,1.8722,1.8725,1.8759,1.8745,1.8753,1.8766,1.8766,1.8783,1.8781,1.8791,1.8774,1.8762,1.8765,1.876,1.8775,1.8722,1.8716,1.8711,1.8692,1.8685,1.8772,1.8772,1.8772,1.8773,0,1.8658,1.8656,1.8644,1.8656,1.8658,1.8648,1.8672,1.8671,1.8688,1.8702,1.869,1.8704,1.8707,1.8704,1.8721,1.8689,1.8696,1.8717,1.8744,1.87,1.8683,1.8676,1.8768,1.8769,1.877,1.877,0,0,1.8583,1.861,1.8605,1.8609,1.8627,1.8625,1.8615,1.8619,1.8615,1.8623,1.8613,1.8611,1.863,1.8633,1.865,1.8638,1.8596,1.866,1.866,1.8645,1.8557,1.854,1.8531,1.861,1.8609,1.8608,1.8555,0,1.8537,1.8523,1.8547,1.8526,1.8522,1.8554,1.8545,1.8553,1.8566,1.8563,1.8577,1.8573,1.8599,1.8601,1.8591,1.8603,1.8578,1.8608,1.8598,1.8598,1.8592,1.8523,1.8505,1.8454,1.8549,1.8548,1.8547,0,1.8483,1.8487,1.8466,1.8483,1.8482,1.8474,1.8477,1.8475,1.8484,1.8494,1.8497,1.8517,1.8506,1.8535,1.8518,1.8538,1.8535,1.8541,1.8539,1.8537,1.8568,1.8515,1.8439,1.843,1.8537,1.8538,1.8539,0,1.8425,1.8427,1.8414,1.8417,1.8437,1.843,1.8437,1.8448,1.8448,1.8451,1.845,1.8452,1.8452,1.8451,1.8471,1.849,1.8451,1.8481,1.8456,1.8455,1.8444,1.8444,1.8363,1.8447,1.8447,1.8447,1.8448,0,1.837,1.8355,1.8388,1.8379,1.8362,1.8389,1.8371,1.8382,1.8391,1.8383,1.8411,1.8403,1.8431,1.8425,1.844,1.8422,1.8423,1.8428,1.8432,1.8424,1.8423,1.8421,1.8424,1.8445,1.8446,1.8446,1.8447,0,1.8303,1.8325,1.8312,1.8331,1.8336,1.8322,1.8338,1.8329,1.8344,1.8333,1.8332,1.8354,1.8348,1.8368,1.8366,1.8376,1.8349,1.836,1.8345,1.8348,1.8319,1.832,1.8232,1.822,1.8315,1.8314,1.8313,0,1.8265,1.8254,1.8272,1.8269,1.8276,1.8271,1.8271,1.8296,1.8294,1.8303,1.8293,1.829,1.8288,1.8277,1.8291,1.8289,1.8298,1.8267,1.8298,1.8289,1.8294,1.8293,1.829,1.826,1.8259,1.8258,1.8257,0,1.8194,1.8205,1.8204,1.8206,1.8205,1.8208,1.8212,1.8208,1.8235,1.8231,1.8226,1.8224,1.8222,1.8217,1.8217,1.8223,1.8243,1.8248,1.8241,1.8231,1.8222,1.8223,1.8325,1.8249,1.825,1.825,1.8251,1.8251,1.8138,1.8129,1.8139,1.8136,1.8143,1.8145,1.8138,1.8151,1.8147,1.8147,1.8162,1.8153,1.816,1.8163,1.8167,1.8158,1.8172,1.8163,1.8161,1.8157,1.8151,1.8226,1.8159,1.8159,1.8159,1.816,1.816,0,1.8066,1.8074,1.8072,1.8076,1.8073,1.8095,1.81,1.8095,1.8087,1.8093,1.809,1.8083,1.8078,1.8091,1.8088,1.8078,1.8087,1.8076,1.8075,1.8076,1.814,1.8145,1.8069,1.8069,1.8069,1.8069,1.8069,1.8069,1.8028,1.8012,1.8024,1.801,1.8018,1.801,1.801,1.8012,1.8016,1.8006,1.8003,1.8012,1.802,1.8017,1.8012,1.8016,1.8012,1.7997,1.8003,1.8063,1.8072,1.808,1.8084,1.7997,1.7997,1.7939,1.7939,1.7938]}]]